• In Italy
  • List of Countries
  • For 7 days
  • Water Temperature
  • Satellite Maps
  • Weather Map
  • Weather Widgets
  • user-avatar
    Login

    Hourly Weather Kurbatovo

    Today, 21 September, Friday

    Time Temperature Precipitation Wind Pressure Humidity
    00:00 +8°C° 0 mm 1 mps 744 mmHg 90%
    01:00 +8°C° 0 mm 1 mps 745 mmHg 90%
    02:00 +7°C° 0 mm 1 mps 745 mmHg 90%
    03:00 +7°C° 0 mm 1 mps 745 mmHg 90%
    04:00 +7°C° 0 mm 1 mps 746 mmHg 90%
    05:00 +7°C° 0 mm 1 mps 746 mmHg 89%
    06:00 +7°C° 0 mm 1 mps 747 mmHg 89%
    07:00 +8°C° 0 mm 1 mps 747 mmHg 83%
    08:00 +10°C° 0 mm 1 mps 747 mmHg 77%
    09:00 +12°C° 0 mm 1 mps 748 mmHg 71%
    10:00 +13°C° 0 mm 1 mps 748 mmHg 70%
    11:00 +14°C° 0 mm 2 mps 748 mmHg 68%
    12:00 +15°C° 0 mm 2 mps 748 mmHg 67%
    13:00 +15°C° 0 mm 2 mps 748 mmHg 69%
    14:00 +16°C° 0 mm 2 mps 748 mmHg 72%
    15:00 +16°C° 0 mm 3 mps 748 mmHg 75%
    16:00 +15°C° 0 mm 2 mps 749 mmHg 81%
    17:00 +14°C° 0 mm 2 mps 749 mmHg 87%
    18:00 +13°C° 0 mm 2 mps 749 mmHg 94%
    19:00 +13°C° 0 mm 2 mps 749 mmHg 94%
    20:00 +13°C° 0 mm 2 mps 749 mmHg 95%
    21:00 +12°C° 0 mm 2 mps 749 mmHg 96%
    22:00 +13°C° 0 mm 2 mps 750 mmHg 96%
    23:00 +13°C° 0 mm 2 mps 750 mmHg 95%

    Tomorrow, 22 September, Saturday

    Time Temperature Precipitation Wind Pressure Humidity
    00:00 +13°C° 0 mm 2 mps 750 mmHg 95%
    01:00 +13°C° 0 mm 2 mps 750 mmHg 95%
    02:00 +13°C° 0 mm 2 mps 750 mmHg 96%
    03:00 +12°C° 0 mm 2 mps 750 mmHg 96%
    04:00 +12°C° 0 mm 2 mps 750 mmHg 96%
    05:00 +12°C° 0 mm 2 mps 750 mmHg 96%
    06:00 +12°C° 0 mm 2 mps 750 mmHg 96%
    07:00 +14°C° 0 mm 2 mps 750 mmHg 92%
    08:00 +16°C° 0 mm 2 mps 751 mmHg 88%
    09:00 +17°C° 0 mm 2 mps 751 mmHg 83%
    10:00 +19°C° 0 mm 2 mps 751 mmHg 78%
    11:00 +20°C° 0 mm 3 mps 751 mmHg 74%
    12:00 +21°C° 0 mm 3 mps 751 mmHg 69%
    13:00 +22°C° 0 mm 3 mps 750 mmHg 68%
    14:00 +22°C° 0 mm 3 mps 750 mmHg 67%
    15:00 +23°C° 0 mm 2 mps 750 mmHg 66%
    16:00 +21°C° 0 mm 2 mps 750 mmHg 72%
    17:00 +19°C° 0 mm 2 mps 750 mmHg 79%
    18:00 +18°C° 0 mm 2 mps 750 mmHg 85%
    19:00 +17°C° 0 mm 2 mps 750 mmHg 87%
    20:00 +17°C° 0 mm 2 mps 750 mmHg 89%
    21:00 +16°C° 0 mm 2 mps 750 mmHg 91%
    22:00 +16°C° 0 mm 2 mps 750 mmHg 91%
    23:00 +15°C° 0 mm 2 mps 750 mmHg 92%

    Day after tomorrow, 23 September, Sunday

    Time Temperature Precipitation Wind Pressure Humidity
    00:00 +15°C° 0 mm 2 mps 750 mmHg 92%
    01:00 +15°C° 0 mm 2 mps 750 mmHg 92%
    02:00 +14°C° 0 mm 2 mps 750 mmHg 93%
    03:00 +14°C° 0 mm 2 mps 750 mmHg 93%
    04:00 +14°C° 0 mm 2 mps 750 mmHg 94%
    05:00 +13°C° 0 mm 3 mps 750 mmHg 94%
    06:00 +13°C° 0 mm 3 mps 750 mmHg 94%
    07:00 +14°C° 0 mm 3 mps 750 mmHg 89%
    08:00 +17°C° 0 mm 3 mps 750 mmHg 83%
    09:00 +19°C° 0 mm 4 mps 749 mmHg 77%
    10:00 +20°C° 0 mm 4 mps 749 mmHg 72%
    11:00 +21°C° 0 mm 5 mps 749 mmHg 67%
    12:00 +22°C° 0 mm 5 mps 749 mmHg 62%
    13:00 +22°C° 0 mm 5 mps 748 mmHg 62%
    14:00 +22°C° 0 mm 5 mps 748 mmHg 62%
    15:00 +22°C° 0 mm 5 mps 748 mmHg 63%
    16:00 +20°C° 0 mm 5 mps 748 mmHg 67%
    17:00 +19°C° 0 mm 5 mps 747 mmHg 72%
    18:00 +17°C° 0 mm 4 mps 747 mmHg 77%
    19:00 +17°C° 0 mm 4 mps 747 mmHg 78%
    20:00 +16°C° 0 mm 5 mps 747 mmHg 79%
    21:00 +15°C° 0 mm 5 mps 747 mmHg 79%
    22:00 +15°C° 0 mm 5 mps 746 mmHg 80%
    23:00 +15°C° 0 mm 5 mps 746 mmHg 81%

    24 September, Monday

    Time Temperature Precipitation Wind Pressure Humidity
    00:00 +15°C° 0 mm 5 mps 746 mmHg 82%
    01:00 +14°C° 0 mm 5 mps 745 mmHg 81%
    02:00 +14°C° 0 mm 5 mps 745 mmHg 81%
    03:00 +14°C° 0 mm 5 mps 745 mmHg 80%
    04:00 +13°C° 0 mm 5 mps 745 mmHg 78%
    05:00 +13°C° 0 mm 5 mps 744 mmHg 76%
    06:00 +12°C° 0 mm 5 mps 744 mmHg 74%
    07:00 +14°C° 0 mm 5 mps 744 mmHg 69%
    08:00 +15°C° 0 mm 6 mps 744 mmHg 64%
    09:00 +16°C° 0 mm 6 mps 744 mmHg 58%
    10:00 +17°C° 0 mm 6 mps 744 mmHg 55%
    11:00 +18°C° 0 mm 7 mps 743 mmHg 51%
    12:00 +21°C° 0 mm 7 mps 743 mmHg 48%
    13:00 +20°C° 0 mm 6 mps 743 mmHg 50%
    14:00 +20°C° 0 mm 6 mps 744 mmHg 51%
    15:00 +20°C° 0 mm 5 mps 744 mmHg 52%
    16:00 +19°C° 0 mm 4 mps 744 mmHg 58%
    17:00 +17°C° 0 mm 3 mps 744 mmHg 63%
    18:00 +16°C° 0 mm 3 mps 745 mmHg 68%
    19:00 +15°C° 0 mm 2 mps 745 mmHg 71%
    20:00 +14°C° 0 mm 2 mps 745 mmHg 74%
    21:00 +13°C° 0 mm 2 mps 745 mmHg 76%
    22:00 +13°C° 0 mm 2 mps 745 mmHg 79%
    23:00 +12°C° 0 mm 2 mps 745 mmHg 81%

    25 September, Tuesday

    Time Temperature Precipitation Wind Pressure Humidity
    00:00 +12°C° 0 mm 1 mps 745 mmHg 84%
    01:00 +12°C° 0 mm 2 mps 745 mmHg 83%
    02:00 +12°C° 0 mm 2 mps 745 mmHg 82%
    03:00 +12°C° 0 mm 2 mps 745 mmHg 81%
    04:00 +11°C° 0 mm 3 mps 745 mmHg 79%
    05:00 +11°C° 0 mm 3 mps 744 mmHg 77%
    06:00 +11°C° 0 mm 4 mps 744 mmHg 75%
    07:00 +13°C° 0 mm 5 mps 744 mmHg 73%
    08:00 +14°C° 0 mm 6 mps 744 mmHg 71%
    09:00 +16°C° 0 mm 7 mps 744 mmHg 69%
    10:00 +17°C° 0 mm 7 mps 744 mmHg 67%
    11:00 +18°C° 0 mm 8 mps 744 mmHg 64%
    12:00 +20°C° 0 mm 8 mps 744 mmHg 61%
    13:00 +18°C° 0 mm 7 mps 743 mmHg 62%
    14:00 +18°C° 0 mm 7 mps 743 mmHg 63%
    15:00 +19°C° 0 mm 6 mps 743 mmHg 64%
    16:00 +17°C° 0 mm 6 mps 743 mmHg 68%
    17:00 +16°C° 0 mm 5 mps 743 mmHg 73%
    18:00 +14°C° 0 mm 5 mps 743 mmHg 77%
    19:00 +14°C° 0 mm 5 mps 743 mmHg 76%
    20:00 +14°C° 0 mm 5 mps 743 mmHg 75%
    21:00 +13°C° 0 mm 5 mps 743 mmHg 75%
    22:00 +13°C° 0 mm 5 mps 743 mmHg 73%
    23:00 +13°C° 0 mm 6 mps 743 mmHg 70%

    26 September, Wednesday

    Time Temperature Precipitation Wind Pressure Humidity
    00:00 +11°C° 0 mm 6 mps 743 mmHg 68%
    01:00 +11°C° 0.1 mm 6 mps 743 mmHg 69%
    02:00 +11°C° 0.1 mm 6 mps 743 mmHg 71%
    03:00 +11°C° 0.1 mm 6 mps 743 mmHg 72%
    04:00 +10°C° 0.5 mm 6 mps 743 mmHg 76%
    05:00 +10°C° 0.5 mm 6 mps 743 mmHg 80%
    06:00 +9°C° 0.5 mm 7 mps 743 mmHg 83%
    07:00 +9°C° 0.6 mm 7 mps 743 mmHg 84%
    08:00 +10°C° 0.6 mm 8 mps 743 mmHg 84%
    09:00 +10°C° 0.6 mm 8 mps 743 mmHg 84%
    10:00 +10°C° 0.5 mm 8 mps 743 mmHg 83%
    11:00 +10°C° 0.5 mm 8 mps 743 mmHg 83%
    12:00 +10°C° 0.5 mm 8 mps 743 mmHg 82%
    13:00 +10°C° 0.1 mm 8 mps 744 mmHg 78%
    14:00 +11°C° 0.1 mm 7 mps 744 mmHg 74%
    15:00 +11°C° 0.1 mm 7 mps 744 mmHg 70%
    16:00 +10°C° 0 mm 6 mps 744 mmHg 72%
    17:00 +9°C° 0 mm 6 mps 745 mmHg 73%
    18:00 +8°C° 0 mm 5 mps 745 mmHg 75%
    19:00 +8°C° 0 mm 5 mps 745 mmHg 75%
    20:00 +7°C° 0 mm 6 mps 746 mmHg 75%
    21:00 +7°C° 0 mm 6 mps 746 mmHg 75%
    22:00 +7°C° 0 mm 6 mps 747 mmHg 76%
    23:00 +7°C° 0 mm 6 mps 747 mmHg 78%
    Show more